Asheville, NC

9:36 PM EST on December 06, 2019 (GMT -0500)
Asheville Regional

Weather History for KAVL - September, 2019

Change the Weather History Date:

Sunday, September 1, 2019

  Actual Average Record
Temperature  
Mean Temperature 70 °F 71 °F  
Max Temperature 83 °F 81 °F 92 °F (1951)
Min Temperature 57 °F 61 °F 45 °F (1946)
Degree Days  
Heating Degree Days 0 0  
Month to date heating degree days 0 0  
Since 1 July heating degree days 0 2  
Cooling Degree Days 5 6  
Month to date cooling degree days 5 6  
Year to date cooling degree days 1011 763  
Growing Degree Days 20 (Base 50)    
Moisture  
Dew Point 60 °F    
Average Humidity 70    
Maximum Humidity 93    
Minimum Humidity 47    
Precipitation  
Precipitation 0.00 in 0.14 in 1.52 in (1893)
Month to date precipitation 0.00 0.14  
Year to date precipitation 41.71 31.75  
Snow  
Snow 0.00 in 0.00 in 0.00 in ()
Month to date snowfall 0.0 0.0  
Since 1 July snowfall 0.0 0.0  
Since 1 September snowfall 0.0 0.0  
Snow Depth 0.00 in    
Sea Level Pressure  
Sea Level Pressure 30.17 in    
Wind  
Wind Speed 1 mph (SSE)    
Max Wind Speed 9 mph    
Max Gust Speed 12 mph    
Visibility 10 miles    
Events      
T = Trace of Precipitation, MM = Missing Value Source: NWS Daily Summary

Daily Weather History Graph

Daily Weather History Graph

Search for Another Location

Airport or City:

Astronomy

Sep. 01, 2019 Rise Set
Actual Time 7:02 AM EDT 7:57 PM EDT
Civil Twilight 6:36 AM EDT 8:23 PM EDT
Nautical Twilight 6:05 AM EDT 8:54 PM EDT
Astronomical Twilight 5:33 AM EDT 9:25 PM EDT
Moon 9:26 AM EDT (9/1) 9:49 PM EDT (9/1)
Length of Visible Light 13h 47m
Length of Day
12h 55m
Waxing Crescent, 8% of the Moon is Illuminated
Sep 1
Waxing Crescent
Sep 5
First Quarter
Sep 14
Full
Sep 21
Last Quarter
Sep 28
New

Hourly Weather History & Observations

Time (EDT) Temp. Heat Index Dew Point Humidity Pressure Visibility Wind Dir Wind Speed Gust Speed Precip Events Conditions
12:54 AM 62.1 °F - 59.0 °F 90% 30.19 in 10.0 mi Calm Calm - N/A   Clear
1:54 AM 62.1 °F - 59.0 °F 90% 30.19 in 10.0 mi Calm Calm - N/A   Clear
2:54 AM 61.0 °F - 57.0 °F 87% 30.18 in 10.0 mi Calm Calm - N/A   Clear
3:54 AM 60.1 °F - 57.0 °F 90% 30.18 in 10.0 mi Calm Calm - N/A   Partly Cloudy
4:54 AM 59.0 °F - 55.9 °F 90% 30.18 in 10.0 mi Calm Calm - N/A   Clear
5:54 AM 57.9 °F - 55.0 °F 90% 30.18 in 10.0 mi Calm Calm - N/A   Clear
6:54 AM 57.0 °F - 55.0 °F 93% 30.19 in 10.0 mi Calm Calm - N/A   Clear
7:54 AM 60.1 °F - 57.0 °F 90% 30.20 in 10.0 mi Calm Calm - N/A   Overcast
8:54 AM 63.0 °F - 57.9 °F 84% 30.23 in 10.0 mi Calm Calm - N/A   Overcast
9:54 AM 70.0 °F - 60.1 °F 71% 30.22 in 10.0 mi Calm Calm - N/A   Clear
10:54 AM 73.9 °F - 62.1 °F 66% 30.22 in 10.0 mi Calm Calm - N/A   Clear
11:54 AM 77.0 °F - 63.0 °F 62% 30.21 in 10.0 mi SSW 6.9 mph - N/A   Clear
12:54 PM 78.1 °F - 61.0 °F 56% 30.20 in 10.0 mi Calm Calm - N/A   Scattered Clouds
1:54 PM 79.0 °F - 62.1 °F 56% 30.17 in 10.0 mi Variable 3.5 mph - N/A   Clear
2:54 PM 82.0 °F 83.0 °F 62.1 °F 51% 30.14 in 10.0 mi Variable 6.9 mph - N/A   Mostly Cloudy
3:54 PM 82.0 °F 82.7 °F 61.0 °F 49% 30.12 in 10.0 mi North - - N/A   Scattered Clouds
4:54 PM 82.9 °F 83.7 °F 62.1 °F 49% 30.11 in 10.0 mi Variable 4.6 mph - N/A   Scattered Clouds
5:54 PM 81.0 °F 81.7 °F 61.0 °F 50% 30.11 in 10.0 mi East 5.8 mph - N/A   Mostly Cloudy
6:54 PM 78.1 °F - 62.1 °F 58% 30.12 in 10.0 mi Variable 6.9 mph - N/A   Clear
7:54 PM 75.9 °F - 62.1 °F 62% 30.14 in 10.0 mi Variable 3.5 mph - N/A   Clear
8:54 PM 73.9 °F - 62.1 °F 66% 30.15 in 10.0 mi Calm Calm - N/A   Clear
9:54 PM 71.1 °F - 63.0 °F 75% 30.15 in 10.0 mi Calm Calm - N/A   Clear
10:54 PM 68.0 °F - 63.0 °F 84% 30.16 in 10.0 mi Calm Calm - N/A   Clear
11:54 PM 66.0 °F - 63.0 °F 90% 30.15 in 10.0 mi Calm Calm - N/A   Clear